www.pogodaiklimat.ru

АРХИВ ПОГОДЫ в Джероме

Время (UTC), дата Ветер
(напр.,м/с)
 
Видим.   Явления Облачность Т
(С)
Тd
(С)
f
(%)
Тe
(С)
Тes
(С)
Комфортность

P
(гПа)

Po
(гПа)
Тmin
(С)
Tmax
(С)
R
(мм)
SD
(см)
14:53 21.07   16 км    ясно  +21.7  +4.4  32  +22  +29  комфорт  1016.2  879.4         
15:53 21.07 Ю  16 км    ясно  +23.9  +1.7  23  +23  +30  комфорт  1016.1  879.2         
16:53 21.07 ЮВ  16 км    ясно  +26.1  +4.4  25  +25  +35  комфорт  1015.7  878.9  +13.3  +26.1     
17:53 21.07 ЮВ  16 км    ясно  +28.3  +5.6  24  +27  +39  жарко  1015.3  878.9         
18:53 21.07   16 км    ясно  +30.0  +6.7  23  +29  +54  опасность
солнечного
удара 
1014.8  878.3         
19:53 21.07 нст  16 км    ясно  +31.1  +7.8  23  +30  +45  жарко  1014.2  878.0         
20:53 21.07 нст  16 км    ясно  +32.8  +8.3  22  +31  +47  жарко  1013.2  877.4         
21:53 21.07 С  16 км    ясно  +33.9  +10.6  24  +33  +49  жарко  1012.7  876.8         
22:53 21.07 С  16 км    ясно  +33.9  +11.1  25  +33  +43  жарко  1012.2  876.2  +26.1  +34.4     
23:53 21.07 СЗ  16 км    ясно  +32.8  +12.8  30  +33  +40  жарко  1012.0  875.9         
00:53 22.07 С  16 км    ясно  +30.6  +18.3  48  +35  +38  очень
душно 
1011.3  875.4         
01:53 22.07 СВ  16 км    ясно  +25.0  +12.8  47  +27  +27  жарко  1011.6  875.4         
02:53 22.07 В  16 км    ясно  +24.4  +10.6  42  +26  +26  жарко  1011.8  875.7         
03:53 22.07 В  16 км    ясно  +25.0  +8.3  35  +25  +25  комфорт  1011.8  875.9         
04:53 22.07 В  16 км    ясно  +25.6  +7.8  32  +26  +26  жарко  1011.5  875.9  +23.3  +33.9     
05:53 22.07 В  16 км    ясно  +23.9  +10.0  41  +25  +25  комфорт  1011.4  875.9         
06:53 22.07 В  16 км    ясно  +23.3  +9.4  41  +25  +25  комфорт  1011.3  875.9         
07:53 22.07 В  16 км    ясно  +22.2  +7.2  38  +23  +23  комфорт  1011.0  875.7         
08:53 22.07 СВ  16 км    ясно  +20.6  +7.2  42  +21  +21  комфорт  1010.9  875.7         
09:53 22.07 В  16 км    ясно  +21.7  +7.2  39  +23  +23  комфорт  1010.9  875.7         
10:53 22.07 В  16 км    ясно  +21.7  +6.7  38  +22  +22  комфорт  1011.8  876.5  +20.6  +25.6     
11:53 22.07 В  16 км    ясно  +20.6  +7.2  42  +21  +21  комфорт  1012.5  876.8         
12:53 22.07 В  16 км    ясно  +22.8  +8.3  39  +24  +24  комфорт  1012.6  877.1         
13:53 22.07 В  7
{9} 
16 км    ясно  +26.1  +10.0  36  +27  +27  жарко  1013.2  877.4         
14:53 22.07 ЮВ  16 км    ясно  +27.2  +11.7  38  +28  +31  жарко  1013.6  877.7         
15:53 22.07 В  16 км    ясно  +30.6  +10.0  28  +30  +34  жарко  1013.4  877.7         
16:53 22.07 Ю  16 км    ясно  +32.2  +8.9  24  +31  +42  жарко  1013.2  878.0  +20.0  +32.2     
17:53 22.07 З  16 км    ясно  +33.9  +5.6  17  +32  +44  жарко  1013.0  877.7         
18:53 22.07 нст  16 км    ясно  +35.0  +8.3  19  +33  +48  жарко  1012.7  877.7         
19:53 22.07 СЗ  16 км    ясно  +35.6  +11.1  23  +35  +46  очень
жарко 
1012.4  877.4         
20:53 22.07 СЗ  16 км    ясно  +35.6  +12.8  25  +36  +47  очень
жарко 
1012.0  876.8         
21:53 22.07 СЗ  16 км    ясно  +33.9  +12.8  28  +34  +47  очень
жарко 
1011.7  876.5         
22:53 22.07 С  16 км    ясно  +32.8  +13.9  32  +34  +45  очень
жарко 
1011.6  876.2  +32.2  +36.1     
23:53 22.07 С  16 км    ясно  +29.4  +17.8  50  +34  +40  очень
душно 
1011.8  876.2         
00:53 23.07 СЗ  16 км    ясно  +29.4  +12.8  36  +31  +33  жарко  1012.1  876.5         
01:53 23.07   16 км    ясно  +28.3  +7.8  27  +28  +29  жарко  1011.7  876.2         
02:53 23.07   16 км    ясно  +25.0  +11.1  42  +26  +26  жарко  1012.1  876.5         
03:53 23.07 ЮВ  16 км    ясно  +26.7  +11.1  38  +28  +28  жарко  1012.6  877.4         
04:36 23.07 Ю  7
{13} 
16 км  гроза со слабым дождем  ясно  +27.8  +11.1  35  +29  +29  жарко    879.2         
04:53 23.07 З  8
{10} 
16 км  гроза со слабым дождем  8/5 480 м
[средняя] 
+25.0  +11.7  43  +26  +26  жарко  1014.8  879.2  +24.4  +32.8  0.3   
05:04 23.07 СЗ  16 км  гроза, слабый дождь  8/2 1440 м
[средняя] 
+23.3  +12.2  50  +26  +26  жарко    878.3         
05:14 23.07     16 км    5/2 1410 м
[средняя] 
+26.1  +10.6  38  +27  +27  жарко    878.3         
05:53 23.07 С  16 км    ясно  +24.4  +10.0  40  +25  +25  комфорт  1013.5  878.3         
06:53 23.07 СВ  16 км    ясно  +23.3  +10.0  43  +25  +25  комфорт  1013.7  878.3         
07:22 23.07 СВ  6 км  мгла  5/5 90 м  +23.9  +10.0  41  +25  +25  комфорт    878.6         
07:27 23.07 СВ  4 км  мгла  8/8 90 м  +23.3  +10.0  43  +25  +25  комфорт    878.6         
07:33 23.07 СВ  6 км  мгла  5/5 90 м  +22.8  +10.6  46  +25  +25  комфорт    878.6         
07:53 23.07 СВ  16 км    2/2 330 м  +23.9  +10.0  41  +25  +25  комфорт  1014.0  878.6      0.3   

 

Местоположение метеостанции Jerome County Airport: широта 42.7267 долгота -114.4572 высота над уровнем моря 1234 м.

В архиве по умолчанию представлена погода в Джероме за последние 1-2 суток. Обновление информации о фактической погоде в базе происходит ежечасно! Архивные данные за месяц целиком и за предыдущие месяцы Вы можете получить, выбрав интересующий диапазон дат из раскрывающегося списка и нажав кнопку "Ввод!".

Внимание! Архив погоды МЕТАР в базе сайта в настоящее время начинается c 1 января 2011 г. Нет смысла пытаться выбрать более раннюю дату.

Внимание! Время в таблицах - всемирное. Для получения местного времени необходимо прибавить поправку, которая в Джероме равна -7 ч.

Ветер - указаны скорость ветра в м/с и направление, откуда дует ветер: С - северный, СВ - северо-восточный, В - восточный, ЮВ - юго-восточный, Ю - южный, ЮЗ - юго-западный, З - западный, СЗ - северо-западный.
Видимость - горизонтальная дальность видимости в метрах или километрах. При видимости от 1 до 10 км при отсутствии осадков обычно наблюдается дымка, при ухудшении видимости до 1 км и менее - туман. В сухую погоду видимость может ухудшаться дымом, пылью или мглою.
Атмосферные явления - указаны явления, наблюдавшиеся в указанный момент времени.
Облачность - указаны через наклонную черту верхняя и нижняя облачность в баллах и высота нижней границы облаков в метрах. Внимание: облачность, как и прочие метеорологические величины в США измеряются автоматическими метеостанциями. Указанные значения в баллах носят условный характер и показывают процент времени, в течение которого, в среднем, лазерный луч высотомера отражался от облаков обратно.
T - Температура воздуха - температура, измеренная на высоте 2 м над землей.
Td - Температура точки росы - температура, при понижении до которой содержащийся в воздухе водяной пар достигнет насыщения.
f - Относительная влажность воздуха - влажноcть воздуха, измеренная на высоте 2 м над землей.
Te - Эффективная температура - температура, которую ощущает одетый по сезону человек в тени. Характеристика душности погоды. При расчете учитывается влияние влажности воздуха и скорости ветра на теплоощущения человека.
Tes - Эффективная температура на солнце - температура, которую ощущает человек, с поправкой на солнечный нагрев. Характеристика знойности погоды. Зависит от высоты солнца над горизонтом, облачности и скорости ветра. Ночью, в пасмурную погоду, а также при ветре 12 м/с и более поправка равна нулю.
P - Атмосферное давление - приведенное к уровню моря атмосферное давление.
Po - Атмосферное давление - измеренное на уровне метеостанции атмосферное давление.
Tmin - Минимальная температура - минимум температуры воздуха на высоте 2 м над землей.
Tmax - Максимальная температура - максимум температуры воздуха на высоте 2 м над землей.
R - Количество осадков - Количество выпавших осадков за 3 или 6 часов, мм.
SD - Снежный покров - Высота снежного покрова, см.